This is the latest recevied weather packets stored in our database for station/object DELTON-WX. If no packets are shown the sender has not sent any weather packets the latest 10 day(s).
| Time | Temp. | Humidity | Pressure | Rain* | Wind** | Luminosity | Snow |
|---|---|---|---|---|---|---|---|
| 1778083281 | 10.56° C | 37% | 979.9 hPa | 0 mm | - | - | - |
| 1778082350 | 10° C | 45% | 980.5 hPa | 0 mm | - | - | - |
| 1778081464 | 9.44° C | 44% | 979.9 hPa | 0 mm | - | - | - |
| 1778080551 | 9.44° C | 44% | 979.9 hPa | 0 mm | - | - | - |
| 1778079687 | 8.89° C | 44% | 979.9 hPa | 0 mm | - | - | - |
| 1778078751 | 8.89° C | 50% | 979.7 hPa | 0 mm | - | - | - |
| 1778077868 | 8.33° C | 50% | 979.7 hPa | 0 mm | - | - | - |
| 1778076951 | 8.33° C | 50% | 979.7 hPa | 0 mm | - | - | - |
| 1778076084 | 7.78° C | 48% | 979.5 hPa | 0 mm | - | - | - |
| 1778075147 | 7.78° C | 60% | 978.8 hPa | 0 mm | - | - | - |
| 1778074267 | 7.22° C | 60% | 978.8 hPa | 0 mm | - | - | - |
| 1778073349 | 6.67° C | 60% | 978.7 hPa | 0 mm | - | - | - |
| 1778072479 | 6.11° C | 60% | 978.7 hPa | 0 mm | - | - | - |
| 1778071551 | 6.11° C | 68% | 977.7 hPa | 0 mm | - | - | - |
| 1778070668 | 5.56° C | 68% | 977.7 hPa | 0 mm | - | - | - |
| 1778069753 | 5° C | 68% | 977.7 hPa | 0 mm | - | - | - |
| 1778068889 | 4.44° C | 68% | 977.7 hPa | 0 mm | - | - | - |
| 1778067951 | 3.89° C | 71% | 977 hPa | 0 mm | - | - | - |
| 1778067067 | 3.89° C | 74% | 977 hPa | 0 mm | - | - | - |
| 1778066149 | 3.33° C | 74% | 977 hPa | 0 mm | - | - | - |
| 1778065282 | 2.78° C | 74% | 977 hPa | 0 mm | - | - | - |
| 1778064348 | 2.78° C | 70% | 976.5 hPa | 0 mm | - | - | - |
| 1778063466 | 2.78° C | 70% | 976.9 hPa | 0 mm | - | - | - |
| 1778062549 | 3.33° C | 70% | 976.9 hPa | 0 mm | - | - | - |
| 1778061685 | 3.33° C | 70% | 976.9 hPa | 0 mm | - | - | - |
* Rain latest hour (hover to see other rain measurements)
** Current wind speed in m/s (hover to see current wind gust speed)